When you browse on this site, cookies collect data to enhance your experience and personalize the content and advertising you see.
Visit our Privacy Policy to learn more. By continuing to use the site, you agree to this use of cookies and data.

Météo par heure à Ondjiva 

Ce jour, 21 Septembre, Lundi

Heure Température Précipitation Vent Pression Humidité
00:00 +24°C° 0 mm 3 m/s 666 mmHg 16%
01:00 +22°C° 0 mm 4 m/s 665 mmHg 16%
02:00 +21°C° 0 mm 3 m/s 665 mmHg 17%
03:00 +20°C° 0 mm 2 m/s 665 mmHg 19%
04:00 +18°C° 0 mm 2 m/s 664 mmHg 20%
05:00 +19°C° 0 mm 2 m/s 665 mmHg 19%
06:00 +21°C° 0 mm 1 m/s 666 mmHg 18%
07:00 +22°C° 0 mm 1 m/s 667 mmHg 16%
08:00 +27°C° 0 mm 2 m/s 667 mmHg 13%
09:00 +31°C° 0 mm 3 m/s 668 mmHg 10%
10:00 +36°C° 0 mm 4 m/s 669 mmHg 7%
11:00 +38°C° 0 mm 4 m/s 668 mmHg 7%
12:00 +39°C° 0 mm 3 m/s 668 mmHg 7%
13:00 +40°C° 0 mm 3 m/s 667 mmHg 7%
14:00 +40°C° 0 mm 3 m/s 667 mmHg 7%
15:00 +40°C° 0 mm 3 m/s 666 mmHg 7%
16:00 +40°C° 0 mm 3 m/s 665 mmHg 7%
17:00 +37°C° 0 mm 3 m/s 665 mmHg 9%
18:00 +34°C° 0 mm 3 m/s 665 mmHg 11%
19:00 +30°C° 0 mm 3 m/s 665 mmHg 12%
20:00 +29°C° 0 mm 3 m/s 666 mmHg 14%
21:00 +27°C° 0 mm 3 m/s 666 mmHg 15%
22:00 +26°C° 0 mm 3 m/s 667 mmHg 16%
23:00 +25°C° 0 mm 2 m/s 666 mmHg 19%

Demain, 22 Septembre, Mardi

Heure Température Précipitation Vent Pression Humidité
00:00 +23°C° 0 mm 2 m/s 666 mmHg 22%
01:00 +20°C° 0 mm 2 m/s 666 mmHg 26%
02:00 +19°C° 0 mm 2 m/s 666 mmHg 28%
03:00 +18°C° 0 mm 2 m/s 665 mmHg 30%
04:00 +18°C° 0 mm 2 m/s 665 mmHg 33%
05:00 +19°C° 0 mm 2 m/s 666 mmHg 31%
06:00 +19°C° 0 mm 3 m/s 667 mmHg 28%
07:00 +20°C° 0 mm 3 m/s 668 mmHg 26%
08:00 +26°C° 0 mm 3 m/s 668 mmHg 21%
09:00 +30°C° 0 mm 3 m/s 669 mmHg 15%
10:00 +35°C° 0 mm 3 m/s 670 mmHg 10%
11:00 +37°C° 0 mm 3 m/s 669 mmHg 9%
12:00 +39°C° 0 mm 3 m/s 669 mmHg 8%
13:00 +41°C° 0 mm 2 m/s 668 mmHg 7%
14:00 +41°C° 0 mm 2 m/s 667 mmHg 7%
15:00 +41°C° 0 mm 2 m/s 667 mmHg 7%
16:00 +41°C° 0 mm 1 m/s 666 mmHg 7%
17:00 +37°C° 0 mm 1 m/s 666 mmHg 9%
18:00 +34°C° 0 mm 1 m/s 666 mmHg 10%
19:00 +31°C° 0 mm 1 m/s 666 mmHg 12%
20:00 +30°C° 0 mm 2 m/s 666 mmHg 13%
21:00 +29°C° 0 mm 2 m/s 667 mmHg 14%
22:00 +28°C° 0 mm 3 m/s 667 mmHg 15%
23:00 +26°C° 0 mm 3 m/s 667 mmHg 20%

Après-demain, 23 Septembre, Mercredi

Heure Température Précipitation Vent Pression Humidité
00:00 +24°C° 0 mm 3 m/s 667 mmHg 25%
01:00 +21°C° 0 mm 3 m/s 667 mmHg 30%
02:00 +20°C° 0 mm 3 m/s 666 mmHg 33%
03:00 +19°C° 0 mm 3 m/s 666 mmHg 36%
04:00 +18°C° 0 mm 2 m/s 666 mmHg 38%
05:00 +18°C° 0 mm 2 m/s 666 mmHg 35%
06:00 +19°C° 0 mm 2 m/s 667 mmHg 32%
07:00 +21°C° 0 mm 1 m/s 668 mmHg 29%
08:00 +25°C° 0 mm 2 m/s 668 mmHg 24%
09:00 +29°C° 0 mm 3 m/s 669 mmHg 18%
10:00 +34°C° 0 mm 4 m/s 670 mmHg 13%
11:00 +37°C° 0 mm 4 m/s 669 mmHg 11%
12:00 +40°C° 0 mm 4 m/s 668 mmHg 10%
13:00 +42°C° 0 mm 5 m/s 668 mmHg 8%
14:00 +42°C° 0 mm 4 m/s 667 mmHg 8%
15:00 +42°C° 0 mm 3 m/s 667 mmHg 8%
16:00 +42°C° 0 mm 3 m/s 666 mmHg 7%
17:00 +38°C° 0 mm 3 m/s 666 mmHg 9%
18:00 +35°C° 0 mm 2 m/s 666 mmHg 11%
19:00 +31°C° 0 mm 2 m/s 665 mmHg 12%
20:00 +30°C° 0 mm 2 m/s 666 mmHg 13%
21:00 +29°C° 0 mm 2 m/s 666 mmHg 14%
22:00 +27°C° 0 mm 2 m/s 666 mmHg 15%
23:00 +26°C° 0 mm 2 m/s 666 mmHg 17%

24 Septembre, Jeudi

Heure Température Précipitation Vent Pression Humidité
00:00 +25°C° 0 mm 2 m/s 666 mmHg 19%
01:00 +24°C° 0 mm 2 m/s 666 mmHg 20%
02:00 +23°C° 0 mm 2 m/s 666 mmHg 23%
03:00 +21°C° 0 mm 1 m/s 666 mmHg 26%
04:00 +20°C° 0 mm 1 m/s 665 mmHg 29%
05:00 +21°C° 0 mm 1 m/s 666 mmHg 28%
06:00 +21°C° 0 mm 2 m/s 667 mmHg 27%
07:00 +23°C° 0 mm 2 m/s 667 mmHg 25%
08:00 +27°C° 0 mm 3 m/s 668 mmHg 22%
09:00 +32°C° 0 mm 4 m/s 669 mmHg 18%
10:00 +36°C° 0 mm 5 m/s 669 mmHg 14%
11:00 +37°C° 0 mm 5 m/s 669 mmHg 12%
12:00 +40°C° 0 mm 5 m/s 668 mmHg 10%
13:00 +42°C° 0 mm 4 m/s 667 mmHg 8%
14:00 +42°C° 0 mm 3 m/s 666 mmHg 7%
15:00 +42°C° 0 mm 3 m/s 666 mmHg 7%
16:00 +41°C° 0 mm 2 m/s 665 mmHg 6%
17:00 +37°C° 0 mm 2 m/s 665 mmHg 8%
18:00 +34°C° 0 mm 2 m/s 665 mmHg 9%
19:00 +30°C° 0 mm 1 m/s 665 mmHg 11%
20:00 +28°C° 0 mm 2 m/s 665 mmHg 15%
21:00 +27°C° 0 mm 3 m/s 665 mmHg 18%
22:00 +26°C° 0 mm 4 m/s 666 mmHg 22%
23:00 +23°C° 0 mm 4 m/s 666 mmHg 27%

25 Septembre, Vendredi

Heure Température Précipitation Vent Pression Humidité
00:00 +21°C° 0 mm 4 m/s 666 mmHg 32%
01:00 +20°C° 0 mm 3 m/s 666 mmHg 37%
02:00 +19°C° 0 mm 3 m/s 665 mmHg 41%
03:00 +17°C° 0 mm 3 m/s 665 mmHg 45%
04:00 +16°C° 0 mm 2 m/s 665 mmHg 49%
05:00 +17°C° 0 mm 2 m/s 666 mmHg 45%
06:00 +18°C° 0 mm 2 m/s 666 mmHg 40%
07:00 +19°C° 0 mm 3 m/s 667 mmHg 36%
08:00 +24°C° 0 mm 2 m/s 668 mmHg 29%
09:00 +28°C° 0 mm 2 m/s 668 mmHg 21%
10:00 +32°C° 0 mm 2 m/s 669 mmHg 13%
11:00 +35°C° 0 mm 2 m/s 668 mmHg 10%
12:00 +37°C° 0 mm 1 m/s 668 mmHg 8%
13:00 +41°C° 0 mm 1 m/s 668 mmHg 6%
14:00 +41°C° 0 mm 1 m/s 667 mmHg 6%
15:00 +40°C° 0 mm 1 m/s 666 mmHg 7%
16:00 +39°C° 0 mm 2 m/s 665 mmHg 7%
17:00 +36°C° 0 mm 2 m/s 665 mmHg 8%
18:00 +32°C° 0 mm 2 m/s 665 mmHg 10%
19:00 +29°C° 0 mm 2 m/s 665 mmHg 12%
20:00 +28°C° 0 mm 3 m/s 665 mmHg 13%
21:00 +27°C° 0 mm 4 m/s 666 mmHg 15%
22:00 +26°C° 0 mm 5 m/s 666 mmHg 16%
23:00 +23°C° 0 mm 5 m/s 665 mmHg 22%

26 Septembre, Samedi

Heure Température Précipitation Vent Pression Humidité
00:00 +21°C° 0 mm 4 m/s 665 mmHg 28%
01:00 +19°C° 0 mm 4 m/s 664 mmHg 34%
02:00 +18°C° 0 mm 3 m/s 664 mmHg 37%
03:00 +17°C° 0 mm 3 m/s 664 mmHg 39%
04:00 +16°C° 0 mm 3 m/s 664 mmHg 41%
05:00 +17°C° 0 mm 3 m/s 665 mmHg 38%
06:00 +18°C° 0 mm 3 m/s 665 mmHg 34%
07:00 +19°C° 0 mm 3 m/s 666 mmHg 31%
08:00 +24°C° 0 mm 3 m/s 667 mmHg 24%
09:00 +28°C° 0 mm 4 m/s 667 mmHg 18%
10:00 +33°C° 0 mm 4 m/s 668 mmHg 11%
11:00 +34°C° 0 mm 4 m/s 668 mmHg 11%
12:00 +36°C° 0 mm 4 m/s 667 mmHg 10%
13:00 +38°C° 0 mm 4 m/s 666 mmHg 9%
14:00 +38°C° 0 mm 4 m/s 666 mmHg 9%
15:00 +38°C° 0 mm 4 m/s 665 mmHg 8%
16:00 +38°C° 0 mm 4 m/s 665 mmHg 8%
17:00 +35°C° 0 mm 4 m/s 664 mmHg 10%
18:00 +31°C° 0 mm 3 m/s 664 mmHg 11%
19:00 +29°C° 0 mm 3 m/s 664 mmHg 13%
20:00 +28°C° 0 mm 4 m/s 665 mmHg 13%
21:00 +27°C° 0 mm 4 m/s 665 mmHg 13%
22:00 +27°C° 0 mm 5 m/s 665 mmHg 13%
23:00 +25°C° 0 mm 4 m/s 665 mmHg 14%
Voir plus